EN

Hourly Weather Novokievka

Today, 14 May, Friday

Time Temperature Precipitation Wind Pressure Humidity
00:00 +19°C° 0 mm 1 mps 740 mmHg 39%
01:00 +18°C° 0 mm 1 mps 740 mmHg 40%
02:00 +18°C° 0 mm 1 mps 740 mmHg 42%
03:00 +16°C° 0 mm 1 mps 741 mmHg 43%
04:00 +16°C° 0 mm 1 mps 741 mmHg 45%
05:00 +18°C° 0 mm 1 mps 741 mmHg 43%
06:00 +18°C° 0 mm 0 mps 741 mmHg 41%
07:00 +19°C° 0 mm 0 mps 741 mmHg 38%
08:00 +21°C° 0 mm 0 mps 741 mmHg 34%
09:00 +23°C° 0 mm 0 mps 742 mmHg 30%
10:00 +24°C° 0 mm 0 mps 742 mmHg 26%
11:00 +27°C° 0 mm 1 mps 741 mmHg 25%
12:00 +28°C° 0 mm 2 mps 741 mmHg 23%
13:00 +29°C° 0 mm 2 mps 741 mmHg 22%
14:00 +29°C° 0 mm 2 mps 741 mmHg 22%
15:00 +29°C° 0 mm 2 mps 741 mmHg 22%
16:00 +29°C° 0 mm 2 mps 741 mmHg 23%
17:00 +27°C° 0 mm 2 mps 741 mmHg 27%
18:00 +26°C° 0 mm 2 mps 740 mmHg 32%
19:00 +25°C° 0 mm 2 mps 740 mmHg 37%
20:00 +23°C° 0 mm 2 mps 740 mmHg 38%
21:00 +21°C° 0 mm 2 mps 740 mmHg 39%
22:00 +20°C° 0 mm 2 mps 740 mmHg 39%
23:00 +19°C° 0 mm 2 mps 740 mmHg 40%

Tomorrow, 15 May, Saturday

Time Temperature Precipitation Wind Pressure Humidity
00:00 +20°C° 0 mm 1 mps 740 mmHg 41%
01:00 +20°C° 0 mm 1 mps 740 mmHg 41%
02:00 +19°C° 0 mm 1 mps 740 mmHg 42%
03:00 +19°C° 0 mm 1 mps 740 mmHg 43%
04:00 +16°C° 0 mm 0 mps 740 mmHg 44%
05:00 +18°C° 0 mm 0 mps 740 mmHg 43%
06:00 +19°C° 0 mm 0 mps 740 mmHg 41%
07:00 +20°C° 0 mm 0 mps 741 mmHg 39%
08:00 +22°C° 0 mm 0 mps 740 mmHg 35%
09:00 +26°C° 0 mm 1 mps 740 mmHg 31%
10:00 +28°C° 0 mm 1 mps 740 mmHg 27%
11:00 +28°C° 0 mm 1 mps 740 mmHg 25%
12:00 +29°C° 0 mm 2 mps 740 mmHg 23%
13:00 +30°C° 0 mm 3 mps 740 mmHg 22%
14:00 +30°C° 0 mm 3 mps 740 mmHg 22%
15:00 +30°C° 0 mm 3 mps 739 mmHg 22%
16:00 +30°C° 0 mm 3 mps 739 mmHg 22%
17:00 +28°C° 0 mm 3 mps 739 mmHg 28%
18:00 +27°C° 0 mm 3 mps 739 mmHg 33%
19:00 +25°C° 0 mm 3 mps 739 mmHg 38%
20:00 +24°C° 0 mm 2 mps 739 mmHg 39%
21:00 +23°C° 0 mm 2 mps 738 mmHg 40%
22:00 +21°C° 0 mm 2 mps 738 mmHg 41%
23:00 +20°C° 0 mm 2 mps 738 mmHg 44%

Day after tomorrow, 16 May, Sunday

Time Temperature Precipitation Wind Pressure Humidity
00:00 +21°C° 0 mm 1 mps 738 mmHg 46%
01:00 +20°C° 0 mm 1 mps 738 mmHg 48%
02:00 +20°C° 0 mm 1 mps 738 mmHg 49%
03:00 +19°C° 0 mm 1 mps 738 mmHg 50%
04:00 +19°C° 0 mm 1 mps 738 mmHg 51%
05:00 +21°C° 0 mm 1 mps 738 mmHg 49%
06:00 +22°C° 0 mm 1 mps 739 mmHg 46%
07:00 +22°C° 0 mm 0 mps 739 mmHg 44%
08:00 +23°C° 0 mm 0 mps 739 mmHg 39%
09:00 +27°C° 0 mm 1 mps 739 mmHg 34%
10:00 +29°C° 0 mm 1 mps 739 mmHg 29%
11:00 +29°C° 0 mm 1 mps 739 mmHg 27%
12:00 +30°C° 0 mm 1 mps 739 mmHg 24%
13:00 +31°C° 0 mm 2 mps 738 mmHg 22%
14:00 +31°C° 0 mm 2 mps 738 mmHg 22%
15:00 +31°C° 0 mm 2 mps 738 mmHg 23%
16:00 +31°C° 0 mm 3 mps 738 mmHg 23%
17:00 +29°C° 0 mm 2 mps 738 mmHg 27%
18:00 +28°C° 0 mm 2 mps 737 mmHg 32%
19:00 +27°C° 0 mm 1 mps 737 mmHg 36%
20:00 +26°C° 0 mm 1 mps 737 mmHg 37%
21:00 +24°C° 0 mm 1 mps 737 mmHg 38%
22:00 +23°C° 0 mm 2 mps 737 mmHg 38%
23:00 +21°C° 0 mm 2 mps 737 mmHg 41%

17 May, Monday

Time Temperature Precipitation Wind Pressure Humidity
00:00 +21°C° 0 mm 2 mps 737 mmHg 44%
01:00 +20°C° 0 mm 2 mps 737 mmHg 47%
02:00 +21°C° 0 mm 1 mps 737 mmHg 47%
03:00 +20°C° 0 mm 1 mps 737 mmHg 48%
04:00 +20°C° 0 mm 1 mps 737 mmHg 49%
05:00 +19°C° 0 mm 0 mps 737 mmHg 47%
06:00 +21°C° 0 mm 0 mps 738 mmHg 45%
07:00 +22°C° 0 mm 0 mps 738 mmHg 43%
08:00 +26°C° 0 mm 1 mps 738 mmHg 39%
09:00 +27°C° 0 mm 1 mps 738 mmHg 35%
10:00 +29°C° 0 mm 2 mps 738 mmHg 32%
11:00 +30°C° 0 mm 2 mps 737 mmHg 29%
12:00 +30°C° 0 mm 2 mps 737 mmHg 27%
13:00 +31°C° 0 mm 2 mps 737 mmHg 25%
14:00 +31°C° 0 mm 3 mps 737 mmHg 26%
15:00 +30°C° 0 mm 3 mps 736 mmHg 28%
16:00 +30°C° 0 mm 3 mps 736 mmHg 29%
17:00 +27°C° 0.1 mm 4 mps 736 mmHg 37%
18:00 +25°C° 0.1 mm 4 mps 736 mmHg 46%
19:00 +22°C° 0.1 mm 4 mps 736 mmHg 54%
20:00 +22°C° 0.1 mm 3 mps 736 mmHg 50%
21:00 +21°C° 0.1 mm 2 mps 736 mmHg 45%
22:00 +21°C° 0.1 mm 2 mps 736 mmHg 41%
23:00 +21°C° 0 mm 1 mps 735 mmHg 46%

18 May, Tuesday

Time Temperature Precipitation Wind Pressure Humidity
00:00 +20°C° 0 mm 1 mps 735 mmHg 51%
01:00 +19°C° 0 mm 1 mps 735 mmHg 56%
02:00 +19°C° 0 mm 1 mps 735 mmHg 57%
03:00 +19°C° 0 mm 1 mps 735 mmHg 57%
04:00 +19°C° 0 mm 1 mps 735 mmHg 57%
05:00 +20°C° 0 mm 1 mps 735 mmHg 54%
06:00 +21°C° 0 mm 2 mps 735 mmHg 51%
07:00 +23°C° 0 mm 2 mps 735 mmHg 49%
08:00 +25°C° 0 mm 2 mps 735 mmHg 45%
09:00 +27°C° 0 mm 2 mps 735 mmHg 42%
10:00 +28°C° 0 mm 2 mps 735 mmHg 38%
11:00 +29°C° 0 mm 2 mps 735 mmHg 35%
12:00 +30°C° 0 mm 2 mps 735 mmHg 33%
13:00 +31°C° 0 mm 3 mps 734 mmHg 30%
14:00 +31°C° 0 mm 3 mps 734 mmHg 30%
15:00 +31°C° 0 mm 3 mps 734 mmHg 31%
16:00 +30°C° 0 mm 4 mps 734 mmHg 32%
17:00 +28°C° 0.1 mm 3 mps 734 mmHg 39%
18:00 +26°C° 0.1 mm 3 mps 734 mmHg 45%
19:00 +24°C° 0.1 mm 3 mps 733 mmHg 52%
20:00 +22°C° 0.1 mm 3 mps 734 mmHg 56%
21:00 +21°C° 0.1 mm 3 mps 734 mmHg 60%
22:00 +20°C° 0.1 mm 3 mps 734 mmHg 63%
23:00 +20°C° 0.1 mm 3 mps 734 mmHg 62%

19 May, Wednesday

Time Temperature Precipitation Wind Pressure Humidity
00:00 +20°C° 0.1 mm 3 mps 734 mmHg 61%
01:00 +19°C° 0.1 mm 4 mps 734 mmHg 60%
02:00 +19°C° 0 mm 4 mps 734 mmHg 61%
03:00 +18°C° 0 mm 4 mps 734 mmHg 62%
04:00 +18°C° 0 mm 4 mps 735 mmHg 63%
05:00 +19°C° 0 mm 4 mps 735 mmHg 61%
06:00 +20°C° 0 mm 4 mps 735 mmHg 59%
07:00 +21°C° 0 mm 5 mps 736 mmHg 57%
08:00 +23°C° 0 mm 5 mps 736 mmHg 51%
09:00 +25°C° 0 mm 5 mps 736 mmHg 46%
10:00 +27°C° 0 mm 5 mps 736 mmHg 41%
11:00 +28°C° 0 mm 5 mps 736 mmHg 38%
12:00 +28°C° 0 mm 5 mps 736 mmHg 36%
13:00 +29°C° 0 mm 6 mps 736 mmHg 33%
14:00 +29°C° 0 mm 5 mps 736 mmHg 33%
15:00 +29°C° 0 mm 5 mps 737 mmHg 32%
16:00 +29°C° 0 mm 5 mps 737 mmHg 31%
17:00 +28°C° 0 mm 5 mps 737 mmHg 35%
18:00 +26°C° 0 mm 4 mps 737 mmHg 38%
19:00 +25°C° 0 mm 4 mps 737 mmHg 42%
20:00 +22°C° 0 mm 4 mps 737 mmHg 44%
21:00 +21°C° 0 mm 4 mps 737 mmHg 45%
22:00 +19°C° 0 mm 4 mps 737 mmHg 47%
23:00 +18°C° 0 mm 3 mps 738 mmHg 49%
Show more

We Need Your Consent

Meteoprog and our Service Providers may store and access personal data such as cookies, device identifiers or other similar technologies on your device and process such data to personalise content and ads, as well as provide social media features and to analyse the traffic.

  • Store and/or access information on your device

    Cookies, device identifiers or other information can be stored or accessed on your device for the purposes indicated above.

  • Personalised ads and content, ad and content measurement, audience insights, and products development

    Ads and content can be personalised based on a profile. More data can be added to better personalise ads and content. Ad and content performance can be measured. Insights about the audience who saw the ads and content can be derived. Such data can be used to develop or improve user’s experience, systems and software.

By clicking ‘I Agree’ you will allow the use of indicated cookies, device identifiers, web beacons or other similar technologies. Your settings can be changed in the browser on your device.

For certain purposes, legitimate interests may be relied on, rather than consent. You can read more about this in our Privacy and Cookie Policy.